This is the latest recevied weather packets stored in our database for station/object KF6YUA. If no packets are shown the sender has not sent any weather packets the latest 10 day(s).
| Time | Temp. | Humidity | Pressure | Rain* | Wind** | Luminosity | Snow |
|---|---|---|---|---|---|---|---|
| 1777596493 | 18.33° C | 73% | 1014.7 hPa | 0 mm | - | 175 W/m² | - |
| 1777596191 | 18.89° C | 71% | 1014.7 hPa | 0 mm | - | 204 W/m² | - |
| 1777595888 | 19.44° C | 69% | 1014.8 hPa | 0 mm | - | 223 W/m² | - |
| 1777595588 | 20.56° C | 61% | 1014.5 hPa | 0 mm | - | 232 W/m² | - |
| 1777595283 | 21.11° C | 62% | 1014.5 hPa | 0 mm | - | 240 W/m² | - |
| 1777594980 | 20.56° C | 62% | 1014.8 hPa | 0 mm | - | 212 W/m² | - |
| 1777594676 | 21.11° C | 62% | 1014.7 hPa | 0 mm | - | 223 W/m² | - |
| 1777594373 | 21.11° C | 61% | 1014.5 hPa | 0 mm | - | 292 W/m² | - |
| 1777594069 | 21.11° C | 62% | 1014.7 hPa | 0 mm | - | 334 W/m² | - |
| 1777593764 | 21.67° C | 64% | 1014.7 hPa | 0 mm | - | 345 W/m² | - |
| 1777593461 | 21.11° C | 64% | 1014.7 hPa | 0 mm | - | 366 W/m² | - |
| 1777593159 | 21.11° C | 63% | 1014.7 hPa | 0 mm | - | 388 W/m² | - |
| 1777592859 | 21.11° C | 64% | 1014.7 hPa | 0 mm | - | 400 W/m² | - |
| 1777592556 | 20.56° C | 64% | 1014.6 hPa | 0 mm | - | 467 W/m² | - |
| 1777592251 | 21.11° C | 62% | 1014.8 hPa | 0 mm | - | 493 W/m² | - |
| 1777591948 | 21.11° C | 66% | 1014.8 hPa | 0 mm | - | 515 W/m² | - |
| 1777591644 | 21.11° C | 65% | 1014.8 hPa | 0 mm | - | 480 W/m² | - |
| 1777591340 | 21.11° C | 65% | 1014.7 hPa | 0 mm | - | 482 W/m² | - |
| 1777591036 | 21.11° C | 68% | 1014.9 hPa | 0 mm | - | 508 W/m² | - |
| 1777590732 | 21.11° C | 64% | 1014.9 hPa | 0 mm | - | 500 W/m² | - |
| 1777590428 | 20.56° C | 63% | 1015.1 hPa | 0 mm | - | 424 W/m² | - |
| 1777590125 | 21.11° C | 65% | 1015 hPa | 0 mm | - | 329 W/m² | - |
| 1777589821 | 20.56° C | 66% | 1015.1 hPa | 0 mm | - | 338 W/m² | - |
| 1777589521 | 21.11° C | 62% | 1015.2 hPa | 0 mm | - | 365 W/m² | - |
| 1777589215 | 21.11° C | 63% | 1015.3 hPa | 0 mm | - | 424 W/m² | - |
* Rain latest hour (hover to see other rain measurements)
** Current wind speed in m/s (hover to see current wind gust speed)